| time (UTC) | temp C | wind direction | speed KPH | gust KPH | rain 1hr cm | rain 24hr cm | rain mn cm | humidity % | barometer mb |
| 20260901194459 | 18 | 218 | 6.4 | 19.3 | 0.00 | 0.00 | 0.00 | 1 | 1019.0 |
| 20260901193511 | 18 | 175 | 6.4 | 17.7 | 0.00 | 0.00 | 0.00 | 1 | 1018.8 |
| 20260901192526 | 18 | 220 | 6.4 | 17.7 | 0.00 | 0.00 | 0.00 | 1 | 1018.8 |
| 20260901191523 | 18 | 223 | 6.4 | 16.1 | 0.00 | 0.00 | 0.00 | 1 | 1018.8 |
| 20260901190533 | 19 | 246 | 6.4 | 16.1 | 0.00 | 0.00 | 0.00 | 1 | 1019.0 |
| 20260901185526 | 19 | 219 | 6.4 | 16.1 | 0.00 | 0.00 | 0.00 | 1 | 1019.0 |
| 20260901184538 | 19 | 186 | 8.0 | 17.7 | 0.00 | 0.00 | 0.00 | 1 | 1018.8 |
| 20260901183543 | 20 | 221 | 8.0 | 17.7 | 0.00 | 0.00 | 0.00 | 1 | 1018.6 |
| 20260901182543 | 20 | 249 | 8.0 | 17.7 | 0.00 | 0.00 | 0.00 | 1 | 1018.6 |
| 20260901181518 | 20 | 205 | 8.0 | 17.7 | 0.00 | 0.00 | 0.00 | 1 | 1018.4 |
| 20260901180542 | 20 | 234 | 8.0 | 14.5 | 0.00 | 0.00 | 0.00 | 7 | 1018.4 |
| 20260901175558 | 21 | 206 | 6.4 | 19.3 | 0.00 | 0.00 | 0.00 | 14 | 1018.3 |
| 20260901174527 | 21 | 257 | 8.0 | 24.1 | 0.00 | 0.00 | 0.00 | 20 | 1018.3 |
| 20260901173501 | 21 | 241 | 6.4 | 24.1 | 0.00 | 0.00 | 0.00 | 27 | 1018.3 |
| 20260901172427 | 22 | 194 | 6.4 | 17.7 | 0.00 | 0.00 | 0.00 | 30 | 1018.3 |
| 20260901171448 | 22 | 225 | 6.4 | 16.1 | 0.00 | 0.00 | 0.00 | 35 | 1018.2 |
| 20260901165343 | 22 | 13 | 0.0 | 0.0 | 0.00 | 0.00 | 0.00 | 37 | 1018.3 |
| 20260901164340 | 22 | 302 | 3.2 | 11.3 | 0.00 | 0.00 | 0.00 | 41 | 1018.3 |
| 20260901163356 | 22 | 257 | 1.6 | 11.3 | 0.00 | 0.00 | 0.00 | 40 | 1018.4 |
| 20260901162404 | 22 | 300 | 0.0 | 9.7 | 0.00 | 0.00 | 0.00 | 40 | 1018.4 |
| 20260901161424 | 22 | 296 | 1.6 | 9.7 | 0.00 | 0.00 | 0.00 | 40 | 1018.5 |
| 20260901160424 | 22 | 275 | 3.2 | 16.1 | 0.00 | 0.00 | 0.00 | 40 | 1018.6 |
| 20260901155438 | 22 | 265 | 4.8 | 16.1 | 0.00 | 0.00 | 0.00 | 40 | 1018.7 |
| 20260901154436 | 22 | 252 | 4.8 | 12.9 | 0.00 | 0.00 | 0.00 | 40 | 1018.8 |
| 20260901153433 | 22 | 275 | 4.8 | 14.5 | 0.00 | 0.00 | 0.00 | 41 | 1018.8 |
| 20260901152456 | 22 | 307 | 4.8 | 14.5 | 0.00 | 0.00 | 0.00 | 41 | 1018.9 |
| 20260901151446 | 22 | 269 | 6.4 | 19.3 | 0.00 | 0.00 | 0.00 | 41 | 1018.7 |
| 20260901145339 | 23 | 264 | 4.8 | 16.1 | 0.00 | 0.00 | 0.00 | 40 | 1018.7 |
| 20260901144347 | 22 | 306 | 3.2 | 16.1 | 0.00 | 0.00 | 0.00 | 41 | 1018.7 |
| 20260901143354 | 22 | 284 | 6.4 | 16.1 | 0.00 | 0.00 | 0.00 | 41 | 1018.8 |
| 20260901142400 | 23 | 254 | 1.6 | 11.3 | 0.00 | 0.00 | 0.00 | 41 | 1018.8 |
| 20260901141407 | 23 | 346 | 0.0 | 4.8 | 0.00 | 0.00 | 0.00 | 40 | 1018.8 |
| 20260901140421 | 22 | 255 | 3.2 | 12.9 | 0.00 | 0.00 | 0.00 | 41 | 1019.0 |
| 20260901135353 | 22 | 275 | 4.8 | 14.5 | 0.00 | 0.00 | 0.00 | 41 | 1018.9 |
| 20260901133241 | 22 | 253 | 6.4 | 17.7 | 0.00 | 0.00 | 0.00 | 40 | 1019.1 |
| 20260901132230 | 22 | 227 | 6.4 | 16.1 | 0.00 | 0.00 | 0.00 | 40 | 1019.2 |
| 20260901130109 | 22 | 271 | 4.8 | 19.3 | 0.00 | 0.00 | 0.00 | 39 | 1019.3 |
| 20260901125116 | 22 | 277 | 3.2 | 14.5 | 0.00 | 0.00 | 0.00 | 38 | 1019.5 |
| 20260901124044 | 22 | 269 | 4.8 | 16.1 | 0.00 | 0.00 | 0.00 | 39 | 1019.4 |
| 20260901123105 | 22 | 240 | 4.8 | 16.1 | 0.00 | 0.00 | 0.00 | 38 | 1019.4 |
| 20260901122123 | 22 | 255 | 4.8 | 17.7 | 0.00 | 0.00 | 0.00 | 38 | 1019.5 |
| 20260901121059 | 22 | 264 | 6.4 | 17.7 | 0.00 | 0.00 | 0.00 | 37 | 1019.6 |
| 20260901120029 | 21 | 253 | 1.6 | 11.3 | 0.00 | 0.00 | 0.00 | 36 | 1019.7 |
| 20260901115039 | 21 | 264 | 4.8 | 14.5 | 0.00 | 0.00 | 0.00 | 35 | 1019.6 |
| 20260901114034 | 21 | 230 | 6.4 | 14.5 | 0.00 | 0.00 | 0.00 | 34 | 1019.6 |
| 20260901113030 | 21 | 207 | 3.2 | 14.5 | 0.00 | 0.00 | 0.00 | 32 | 1019.5 |
| 20260901110918 | 20 | 253 | 6.4 | 17.7 | 0.00 | 0.00 | 0.00 | 30 | 1019.7 |
| 20260901105940 | 21 | 289 | 4.8 | 14.5 | 0.00 | 0.00 | 0.00 | 32 | 1019.7 |
| 20260901104933 | 21 | 275 | 3.2 | 14.5 | 0.00 | 0.00 | 0.00 | 27 | 1019.8 |
| 20260901103913 | 20 | 275 | 3.2 | 14.5 | 0.00 | 0.00 | 0.00 | 28 | 1019.9 |
| 20260901102922 | 20 | 290 | 3.2 | 12.9 | 0.00 | 0.00 | 0.00 | 22 | 1019.8 |
| 20260901101944 | 20 | 244 | 1.6 | 3.2 | 0.00 | 0.00 | 0.00 | 11 | 1019.9 |
| 20260901100944 | 20 | 257 | 1.6 | 12.9 | 0.00 | 0.00 | 0.00 | 11 | 1020.0 |
| 20260901095944 | 20 | 325 | 4.8 | 12.9 | 0.00 | 0.00 | 0.00 | 11 | 1020.1 |
| 20260901093758 | 19 | 304 | 4.8 | 14.5 | 0.00 | 0.00 | 0.00 | 1 | 1020.2 |
| 20260901091637 | 19 | 278 | 1.6 | 9.7 | 0.00 | 0.00 | 0.00 | 1 | 1020.2 |
| 20260901090625 | 19 | 304 | 0.0 | 0.0 | 0.00 | 0.00 | 0.00 | 1 | 1020.0 |
| 20260901085640 | 19 | 311 | 0.0 | 0.0 | 0.00 | 0.00 | 0.00 | 1 | 1020.1 |
| 20260901084656 | 18 | 306 | 0.0 | 0.0 | 0.00 | 0.00 | 0.00 | 1 | 1020.0 |
| 20260901083656 | 18 | 311 | 0.0 | 6.4 | 0.00 | 0.00 | 0.00 | 1 | 1020.1 |
| 20260901082645 | 17 | 309 | 0.0 | 0.0 | 0.00 | 0.00 | 0.00 | 1 | 1020.0 |
| 20260901081628 | 17 | 260 | 0.0 | 9.7 | 0.00 | 0.00 | 0.00 | 1 | 1019.9 |
| 20260901080609 | 17 | 275 | 3.2 | 11.3 | 0.00 | 0.00 | 0.00 | 1 | 1019.9 |
| 20260901075632 | 17 | 246 | 3.2 | 12.9 | 0.00 | 0.00 | 0.00 | 1 | 1019.8 |
| 20260901073446 | 16 | 278 | 3.2 | 12.9 | 0.00 | 0.00 | 0.00 | 1 | 1019.6 |
| 20260901072456 | 16 | 259 | 1.6 | 8.0 | 0.00 | 0.00 | 0.00 | 1 | 1019.5 |
| 20260901071427 | 16 | 265 | 0.0 | 0.0 | 0.00 | 0.00 | 0.00 | 1 | 1019.4 |
| 20260901065325 | 16 | 264 | 3.2 | 9.7 | 0.00 | 0.00 | 0.00 | 1 | 1019.4 |
| 20260901064328 | 15 | 272 | 3.2 | 8.0 | 0.00 | 0.00 | 0.00 | 1 | 1019.4 |
| 20260901063338 | 15 | 271 | 1.6 | 9.7 | 0.00 | 0.00 | 0.00 | 1 | 1019.3 |
| 20260901062310 | 15 | 265 | 3.2 | 9.7 | 0.00 | 0.00 | 0.00 | 1 | 1019.2 |
| 20260901061324 | 15 | 261 | 1.6 | 8.0 | 0.00 | 0.00 | 0.00 | 1 | 1019.2 |
| 20260901055132 | 14 | 261 | 1.6 | 4.8 | 0.00 | 0.00 | 0.00 | 1 | 1018.8 |
| 20260901054120 | 14 | 261 | 1.6 | 4.8 | 0.00 | 0.00 | 0.00 | 1 | 1018.8 |
| 20260901053140 | 14 | 259 | 1.6 | 4.8 | 0.00 | 0.00 | 0.00 | 1 | 1018.7 |
| 20260901052142 | 14 | 259 | 3.2 | 8.0 | 0.00 | 0.00 | 0.00 | 1 | 1018.8 |
| 20260901051121 | 15 | 265 | 1.6 | 8.0 | 0.00 | 0.00 | 0.00 | 1 | 1018.7 |
| 20260901050118 | 15 | 267 | 1.6 | 11.3 | 0.00 | 0.00 | 0.00 | 1 | 1018.6 |
| 20260901045045 | 15 | 263 | 3.2 | 11.3 | 0.00 | 0.00 | 0.00 | 1 | 1018.6 |
| 20260901044052 | 15 | 267 | 1.6 | 9.7 | 0.00 | 0.00 | 0.00 | 1 | 1018.6 |
| 20260901041921 | 16 | 271 | 1.6 | 9.7 | 0.00 | 0.00 | 0.00 | 1 | 1018.4 |
| 20260901035716 | 16 | 283 | 0.0 | 4.8 | 0.00 | 0.00 | 0.00 | 1 | 1018.1 |
| 20260901033602 | 16 | 278 | 0.0 | 11.3 | 0.00 | 0.00 | 0.00 | 1 | 1018.2 |
| 20260901032559 | 16 | 304 | 0.0 | 11.3 | 0.00 | 0.00 | 0.00 | 1 | 1018.2 |
| 20260901031608 | 16 | 311 | 0.0 | 0.0 | 0.00 | 0.03 | 0.00 | 1 | 1018.2 |
| 20260901025506 | 17 | 298 | 0.0 | 8.0 | 0.00 | 0.03 | 0.00 | 1 | 1018.1 |
| 20260901024446 | 17 | 289 | 1.6 | 12.9 | 0.00 | 0.03 | 0.00 | 1 | 1018.1 |
| 20260901023446 | 17 | 300 | 1.6 | 11.3 | 0.00 | 0.03 | 0.00 | 1 | 1018.1 |
| 20260901022459 | 17 | 313 | 1.6 | 9.7 | 0.00 | 0.03 | 0.00 | 1 | 1018.0 |
| 20260901021520 | 17 | 299 | 0.0 | 9.7 | 0.00 | 0.03 | 0.00 | 1 | 1018.0 |
| 20260901020519 | 17 | 314 | 0.0 | 9.7 | 0.00 | 0.05 | 0.00 | 1 | 1017.9 |
| 20260901015530 | 17 | 284 | 0.0 | 9.7 | 0.00 | 0.13 | 0.00 | 1 | 1017.9 |
| 20260901014542 | 17 | 311 | 0.0 | 6.4 | 0.00 | 0.28 | 0.00 | 1 | 1017.9 |
| 20260901013554 | 17 | 297 | 1.6 | 6.4 | 0.00 | 0.30 | 0.00 | 1 | 1017.9 |
| 20260901012536 | 17 | 273 | 1.6 | 12.9 | 0.00 | 0.30 | 0.00 | 1 | 1017.8 |
| 20260901011533 | 17 | 297 | 1.6 | 8.0 | 0.00 | 0.30 | 0.00 | 1 | 1017.7 |
| 20260901005407 | 17 | 267 | 3.2 | 9.7 | 0.00 | 0.30 | 0.00 | 1 | 1017.7 |
| 20260901000955 | 18 | 291 | 1.6 | 4.8 | 0.00 | 0.30 | 0.00 | 1 | 1017.4 |
| 20260831235959 | 18 | 296 | 0.0 | 6.4 | 0.00 | 0.30 | 0.00 | 1 | 1017.4 |
| 20260831233849 | 18 | 300 | 1.6 | 9.7 | 0.00 | 0.30 | 0.00 | 1 | 1017.4 |
| 20260831232834 | 18 | 298 | 1.6 | 9.7 | 0.00 | 0.30 | 0.00 | 1 | 1017.3 |
| 20260831231804 | 18 | 309 | 0.0 | 8.0 | 0.00 | 0.30 | 0.00 | 1 | 1017.3 |
| 20260831230815 | 18 | 313 | 0.0 | 9.7 | 0.00 | 0.30 | 0.00 | 1 | 1017.3 |
| 20260831225750 | 18 | 293 | 0.0 | 9.7 | 0.00 | 0.30 | 0.30 | 1 | 1017.2 |
| 20260831224809 | 18 | 280 | 0.0 | 0.0 | 0.00 | 0.30 | 0.30 | 1 | 1017.2 |
| 20260831223754 | 18 | 303 | 0.0 | 0.0 | 0.00 | 0.30 | 0.30 | 1 | 1017.2 |
| 20260831222758 | 18 | 320 | 0.0 | 11.3 | 0.00 | 0.30 | 0.30 | 1 | 1017.2 |
| 20260831220630 | 18 | 272 | 3.2 | 11.3 | 0.00 | 0.36 | 0.30 | 1 | 1017.0 |
| 20260831215637 | 18 | 276 | 3.2 | 11.3 | 0.00 | 0.36 | 0.30 | 1 | 1016.9 |
| 20260831214637 | 18 | 265 | 4.8 | 11.3 | 0.00 | 0.38 | 0.30 | 1 | 1016.8 |
| 20260831213650 | 18 | 277 | 0.0 | 11.3 | 0.00 | 0.41 | 0.30 | 1 | 1016.7 |
| 20260831212710 | 18 | 275 | 0.0 | 0.0 | 0.00 | 0.41 | 0.30 | 1 | 1016.6 |
| 20260831211710 | 19 | 282 | 0.0 | 0.0 | 0.00 | 0.41 | 0.30 | 1 | 1016.5 |
| 20260831210644 | 19 | 286 | 0.0 | 0.0 | 0.00 | 0.41 | 0.30 | 1 | 1016.3 |
| 20260831205656 | 19 | 284 | 0.0 | 0.0 | 0.00 | 0.41 | 0.30 | 1 | 1016.1 |
| 20260831204637 | 19 | 284 | 0.0 | 0.0 | 0.00 | 0.41 | 0.30 | 1 | 1016.1 |
| 20260831202518 | 20 | 272 | 1.6 | 14.5 | 0.00 | 0.41 | 0.30 | 1 | 1016.1 |
| 20260831201507 | 20 | 261 | 3.2 | 14.5 | 0.00 | 0.41 | 0.30 | 1 | 1015.9 |
| 20260831200448 | 20 | 244 | 3.2 | 8.0 | 0.00 | 0.38 | 0.28 | 1 | 1015.8 |
| 20260831195437 | 20 | 244 | 3.2 | 6.4 | 0.00 | 0.38 | 0.28 | 1 | 1015.5 |